OPS 4988 DEB, 12099

Orbit data source: Space-Track

OPS 4988 DEB, 12099 is space debris in LEO originally from a launch on Tue, 09 Mar 1965 UTC launched from the Air Force Western Test Range (AFWTR). Debris objects in space refer to the collection of defunct objects orbiting the Earth. Examples of debris include non-operational satellites, rocket bodies, and fragments generated from explosions, collisions, or faulty payload assembly.

Loading next visibility...
Identifier
12099, 1965-016K
Orbit
LEO
Country
Flag of USUS
Related business
Manufacturer
Unknown
Mission
Spacecraft
Bus & Motor
Unknown
Mass
Unknown
Launch date (UTC)
1965-03-09 (61 years ago)
Launch vehicle
Unknown
Launch site
Air Force Western Test Range (AFWTR)
Object type
Payload
Rocket body
Debris
Shape & HBR
Unknown shape, 0.1 m
Radar Cross Section
Medium (>0.1 m² and <1 m²)

Expand to show TLE details & history
Last TLE update: 19 hours ago

TLE from 19 hours ago
0 OPS 4988 DEB
1 12099U 65016K   26208.61059613  .00000358  00000-0  25573-3 0  9999
2 12099  70.0757 148.7025 0019512 218.3673 316.8599 14.04935329132708
Epoch: 2026-07-27T14:39Z
TLE epoch observation values (Epoch: 2026-07-27T14:39:15.505Z)
Latitude
4.55363°
Longitude
161.95063°
Altitude
868.289 km
Speed
7.424 km/s
True Right ascension
21h 48m 13s
True Declination
4° 31' 37"
Sunlit
Object was in full shadow at epoch
Visualization orbit readout
Latitude
Unknown
Longitude
Unknown
Altitude
Unknown
Speed
Unknown
Apparent Right ascension
Unknown
Apparent Declination
Unknown
Sunlit
N/A
Visualization observer readout
Local Sidereal Time
22:41:57
Azimuth
Unknown
Elevation
Unknown
Doppler factor
Unknown
Orbital elements
Apogee altitude
888.934 km
Perigee altitude
860.63 km
Semi-major axis
7,252.919 km
Eccentricity
0.00195
Inclination
70.0757°
RAAN
148.7025°
Arg. of periapsis
218.3673°
True anomaly
316.70674°
Mean anomaly
316.8599°
Eccentric anomaly
316.78335°
Mean motion
3.51377 °/min
Orbital period
102.45 mins
BSTAR
0.00025573
Loading maneuver chart data...
Computing Atmospheric mass density...
Loading historical data...
Loading historical data...
Loading historical data...
Loading historical data...
Loading historical data...
Loading historical data...
Loading historical data...

Documentation

Showing up to 5 results
|